Atlantic - Newfoundland: Past 24 Hour Conditions

 

Daniel's Harbour

06:30 PM NDT 22 July 2014
This table is a summary of hourly weather conditions for the past 24 hours.
Date / Time
(NDT)
Wind(knots) Conditions Visibility(km) Pressure(kPa) Air tempC) Relative humidity(%) Dew pointC)
22 July 2014
18:30 SSW 19 gust 28 N/A 15 100.9 18 77 14
17:30 SSW 19 gust 27 N/A 15 101.0 19 74 15
16:30 SSW 17 gust 27 N/A 15 101.0 20 73 15
15:30 SSW 21 gust 27 N/A 15 101.1 19 75 15
14:30 SSW 18 gust 28 N/A 15 101.1 20 72 15
13:30 SSW 22 gust 30 N/A 15 101.2 20 72 15
12:30 SSW 23 gust 29 N/A 15 101.3 20 72 15
11:30 SSW 19 gust 27 N/A 15 101.4 19 73 14
10:30 SSW 21 gust 27 N/A 15 101.3 19 71 14
9:30 SSW 19 gust 25 N/A 15 101.4 19 71 13
8:30 SSW 15 gust 24 N/A 15 101.4 18 71 13
7:30 SSW 14 gust 25 N/A 15 101.4 18 68 12
6:30 SSW 16 N/A 15 101.4 17 68 11
5:30 SSW 16 gust 21 N/A 15 101.5 17 66 11
4:30 SSW 14 gust 20 N/A 15 101.5 17 59 9
3:30 SSW 12 gust 18 N/A 15 101.5 17 60 9
2:30 SSW 14 N/A 15 101.6 17 63 10
1:30 SSW 12 gust 19 N/A 15 101.6 17 64 10
0:30 SSW 13 gust 20 N/A 15 101.7 17 63 10
21 July 2014
23:30 SSW 11 gust 18 N/A 15 101.7 17 73 12
22:30 SSW 13 gust 19 N/A 15 101.7 17 77 13
21:30 SSW 12 N/A 15 101.8 17 77 13
20:30 SSW 15 gust 21 N/A 15 101.8 18 74 13
19:30 SSW 13 N/A 15 101.8 18 74 13
18:30 SSW 19 N/A 15 101.8 18 72 13
 
Map of Atlantic - Newfoundland marine weather areas Southwestern Grand Banks - 44138 Banquereau - 44139 Tail of the Bank - 44140 Nickerson Bank - 44251 Northeast Burgeo Bank - 44255 Blanc-Sablon Airport Cap Whittle Chevery Natashquan Airport Heath Point Miscou Island Grand Étang Ingonish Beach North Mountain St.Paul Island J.A. Douglas McCurdy Sydney Airport Charlottetown Airport East Point North Cape Argentia Bonavista Burgeo Cape Race Corner Brook Daniel's Harbour Englee Ferolle Point La Scie Port aux Basques Rocky Harbour Sagona Island St. Anthony Airport St. John's Int'l Airport St. Lawrence Stephenville Airport Twillingate Winterland Wreckhouse Cartwright Airport Mary's Harbour Grates Cove Pool's Island Marticot Island Long Pond Îles de la Madeleine Airport
Legend: buoyBuoy land stationLand Station